Hourly Data Report for October 15, 2000

SHERBROOKE A
QUEBEC

45°26'00.000" N
71°41'00.000" W
241.40 m
7028124
71610
YSC

Download Data

Hourly Data (October 2000)
Hourly Data Report for October 15, 2000
TIME
LST
Temp Definition
°C
Dew Point Definition
°C
Rel Hum Definition
%
Precip. Amount Definition
mm

Wind Dir Definition
10's deg

Wind Spd Definition
km/h
Visibility Definition
km
Stn Press Definition
kPa
Hmdx Definition


Wind Chill Definition


Weather Definition


00:00 17.9 11.7 67   26 30 15.0 98.06      
01:00 17.0 11.6 70   25 17 15.0 98.09      
02:00 14.0 10.6 80   30 15 15.0 98.19      
03:00 10.5 7.4 81   30 15 15.0 98.36      
04:00 9.0 5.7 80   32 9 15.0 98.49      
05:00 7.8 4.4 79   33 7 15.0 98.55      
06:00 7.0 2.9 75   31 17 15.0 98.69      
07:00 6.3 2.1 74   32 11 24.1 98.82     Cloudy
08:00 6.3 1.8 73   32 13 24.1 98.95     Mostly Cloudy
09:00 7.6 1.4 65   33 19 24.1 98.98     Mostly Cloudy
10:00 7.8 0.3 59   31 17 24.1 99.05     Mainly Clear
11:00 8.6 -1.5 49   33 19 24.1 99.08     Mostly Cloudy
12:00 9.6 -1.0 48   33 15 24.1 99.12     Mainly Clear
13:00 9.1 -1.8 46   32 20 24.1 99.15     Mostly Cloudy
14:00 8.3 -2.1 48   31 17 24.1 99.18     Mostly Cloudy
15:00 7.9 -2.0 50   31 13 24.1 99.22     Mostly Cloudy
16:00 6.9 -2.5 51   33 13 24.1 99.28     Mainly Clear
17:00 4.6 -3.9 54   34 6 15.0 99.35      
18:00 1.6 -3.5 69   30 6 15.0 99.41      
19:00 1.1 -3.2 73   32 6 15.0 99.45      
20:00 -1.3 -4.0 82     0 15.0 99.51      
21:00 -2.0 -3.8 87   8 6 15.0 99.51   -4  
22:00 -1.6 -2.9 91   7 7 15.0 99.55   -4  
23:00 -2.4 -3.7 91   11 7 15.0 99.55   -5  

Notes on Data Quality.

Legend

  • E = Estimated
  • M = Missing
  • NA = Not Available*
  • [empty] = Indicates an unobserved value
Date modified: